FW4606 Weather Reports


Display with metric or nautical units.
time (UTC)temp
F
wind
direction
speed
MPH
gust
MPH
rain 1hr
in
rain 24hr
in
rain mn
in
humidity
%
barometer
mb
20260903075801 69 77 0.0 0.0 0.00 0.00 0.00 90 1010.8
20260903075254 69 78 0.0 0.0 0.00 0.00 0.00 90 1010.7
20260903074749 70 78 0.0 0.0 0.00 0.00 0.00 90 1010.8
20260903074242 70 78 0.0 0.0 0.00 0.00 0.00 89 1010.8
20260903073736 70 78 0.0 0.0 0.00 0.00 0.00 88 1010.9
20260903073230 70 78 0.0 0.0 0.00 0.00 0.00 88 1010.9
20260903072725 71 77 0.0 0.0 0.00 0.00 0.00 88 1010.9
20260903072219 71 78 0.0 0.0 0.00 0.00 0.00 87 1010.9
20260903071712 71 78 0.0 0.0 0.00 0.00 0.00 87 1011.0
20260903071206 71 77 0.0 0.0 0.00 0.00 0.00 87 1011.0
20260903070700 71 77 0.0 1.0 0.00 0.00 0.00 87 1011.0
20260903070154 71 77 0.0 1.0 0.00 0.00 0.00 87 1011.0
20260903065648 71 77 0.0 0.0 0.00 0.00 0.00 87 1011.0
20260903065142 71 78 0.0 1.0 0.00 0.00 0.00 88 1011.0
20260903064637 71 77 0.0 1.0 0.00 0.00 0.00 88 1011.0
20260903064131 71 71 0.0 0.0 0.00 0.00 0.00 88 1010.9
20260903063857 71 282 0.0 0.0 0.00 0.00 0.00 88 1010.9
20260903063119 71 283 0.0 0.0 0.00 0.00 0.00 88 1011.1
20260903062612 71 283 0.0 0.0 0.00 0.00 0.00 89 1011.1
20260903062106 71 283 0.0 0.0 0.00 0.00 0.00 88 1011.3
20260903061601 71 283 0.0 0.0 0.00 0.00 0.00 88 1011.3
20260903061055 71 282 0.0 0.0 0.00 0.00 0.00 88 1011.4
20260903060552 71 282 0.0 0.0 0.00 0.00 0.00 87 1011.4
20260903060049 71 283 0.0 0.0 0.00 0.00 0.00 87 1011.3
20260903055549 71 283 0.0 0.0 0.00 0.00 0.00 87 1011.3
20260903055049 71 282 0.0 0.0 0.00 0.00 0.00 87 1011.3
20260903054550 71 282 0.0 1.0 0.00 0.00 0.00 88 1011.2
20260903054050 71 282 0.0 1.0 0.00 0.00 0.00 88 1011.3
20260903053550 70 4 0.0 0.0 0.00 0.00 0.00 89 1011.2
20260903053049 70 4 0.0 0.0 0.00 0.00 0.00 89 1011.3
20260903052547 70 3 0.0 0.0 0.00 0.00 0.00 89 1011.3
20260903052316 69 11 0.0 0.0 0.00 0.00 0.00 89 1011.4
20260903051544 69 11 0.0 0.0 0.00 0.00 0.00 88 1011.3
20260903051043 69 11 0.0 0.0 0.00 0.00 0.00 87 1011.4
20260903050540 69 11 0.0 0.0 0.00 0.00 0.00 87 1011.4
20260903050038 70 11 0.0 0.0 0.00 0.00 0.00 86 1011.4
20260903045535 70 11 0.0 0.0 0.00 0.00 0.00 86 1011.5
20260903045035 70 11 0.0 0.0 0.00 0.00 0.00 85 1011.6
20260903044532 71 11 0.0 0.0 0.00 0.00 0.00 84 1011.5
20260903044031 71 11 0.0 0.0 0.00 0.00 0.00 83 1011.6
20260903043529 72 11 0.0 0.0 0.00 0.00 0.00 82 1011.6
20260903043025 72 11 0.0 0.0 0.00 0.00 0.00 82 1011.5
20260903042527 72 11 0.0 0.0 0.00 0.00 0.00 83 1011.4
20260903042253 73 11 0.0 0.0 0.00 0.00 0.00 82 1011.6
20260903041745 73 11 0.0 0.0 0.00 0.00 0.00 82 1011.6
20260903041241 73 11 0.0 0.0 0.00 0.00 0.00 81 1011.5
20260903040502 73 11 0.0 0.0 0.00 0.00 0.00 81 1011.5
20260903035957 73 11 0.0 0.0 0.00 0.00 0.00 81 1011.6
20260903035456 74 11 0.0 0.0 0.00 0.00 0.00 80 1011.5
20260903034953 74 11 0.0 0.0 0.00 0.00 0.00 79 1011.6
20260903034453 74 12 0.0 0.0 0.00 0.00 0.00 79 1011.6
20260903033949 74 11 0.0 0.0 0.00 0.00 0.00 79 1011.6
20260903033449 74 11 0.0 0.0 0.00 0.00 0.00 79 1011.6
20260903033217 74 11 0.0 0.0 0.00 0.00 0.00 79 1011.7
20260903032445 74 12 0.0 0.0 0.00 0.00 0.00 80 1011.7
20260903031942 74 5 0.0 0.0 0.00 0.00 0.00 78 1011.7
20260903031440 74 5 0.0 0.0 0.00 0.00 0.00 79 1011.7
20260903030940 74 4 0.0 0.0 0.00 0.00 0.00 78 1011.6
20260903030713 74 5 0.0 0.0 0.00 0.00 0.00 79 1011.7
20260903025941 74 5 0.0 0.0 0.00 0.00 0.00 78 1011.7
20260903025441 74 5 0.0 0.0 0.00 0.00 0.00 78 1011.7
20260903024939 74 5 0.0 0.0 0.00 0.00 0.00 79 1011.7
20260903024439 74 5 0.0 0.0 0.00 0.00 0.00 79 1011.7
20260903023940 74 5 0.0 0.0 0.00 0.00 0.00 79 1011.8
20260903023831 74 4 0.0 0.0 0.00 0.00 0.00 79 1011.8
20260903023721 74 5 0.0 0.0 0.00 0.00 0.00 79 1011.8
20260903022709 74 5 0.0 0.0 0.00 0.00 0.00 78 1011.7
20260903021938 75 5 0.0 0.0 0.00 0.00 0.00 78 1011.7
20260903021437 75 5 0.0 0.0 0.00 0.00 0.00 77 1011.6
20260903020935 75 6 0.0 0.0 0.00 0.00 0.00 77 1011.6
20260903020707 75 5 0.0 0.0 0.00 0.00 0.00 76 1011.5
20260903015934 76 5 0.0 0.0 0.00 0.00 0.00 76 1011.5
20260903015431 76 5 0.0 0.0 0.00 0.00 0.00 75 1011.4
20260903014931 76 5 0.0 0.0 0.00 0.00 0.00 75 1011.4
20260903014430 76 5 0.0 0.0 0.00 0.00 0.00 74 1011.3
20260903014201 76 5 0.0 0.0 0.00 0.00 0.00 73 1011.3
20260903013706 77 5 0.0 0.0 0.00 0.00 0.00 72 1011.2
20260903012930 77 5 0.0 0.0 0.00 0.00 0.00 72 1011.1
20260903012429 77 5 0.0 0.0 0.00 0.00 0.00 71 1011.1
20260903011928 78 5 0.0 0.0 0.00 0.00 0.00 70 1011.1
20260903011427 78 5 0.0 0.0 0.00 0.00 0.00 69 1011.1
20260903010927 79 6 0.0 0.0 0.00 0.00 0.00 68 1011.0
20260903010426 79 5 0.0 0.0 0.00 0.00 0.00 67 1011.0
20260903005926 80 5 0.0 0.0 0.00 0.00 0.00 67 1010.9
20260903005423 80 5 0.0 0.0 0.00 0.00 0.00 65 1011.0
20260903005156 81 5 0.0 0.0 0.00 0.00 0.00 64 1010.9
20260903004425 81 5 0.0 0.0 0.00 0.00 0.00 64 1011.0
20260903003924 81 5 0.0 1.0 0.00 0.00 0.00 63 1011.0
20260903003425 82 5 0.0 1.0 0.00 0.00 0.00 63 1011.1
20260903002924 82 5 0.0 2.0 0.00 0.00 0.00 62 1011.0
20260903002656 82 5 0.0 2.0 0.00 0.00 0.00 62 1011.0
20260903001924 82 343 0.0 1.0 0.00 0.00 0.00 61 1011.0
20260903001422 83 345 0.0 1.0 0.00 0.00 0.00 61 1011.0
20260903000922 83 46 0.0 1.0 0.00 0.00 0.00 60 1011.0
20260903000421 83 49 0.0 1.0 0.00 0.00 0.00 60 1010.9
20260903000152 83 49 0.0 1.0 0.00 0.00 0.00 59 1010.9
20260902235654 84 59 0.0 2.0 0.00 0.00 0.00 59 1011.0
20260902235149 84 328 0.0 2.0 0.00 0.00 0.00 58 1010.9
20260902234649 85 20 0.0 2.0 0.00 0.00 0.00 57 1010.9
20260902233917 85 349 0.0 1.0 0.00 0.00 0.00 56 1011.0
20260902233418 85 131 0.0 1.0 0.00 0.00 0.00 55 1011.0
20260902232919 86 356 0.0 1.0 0.00 0.00 0.00 54 1011.0
20260902232417 86 348 0.0 3.0 0.00 0.00 0.00 53 1011.0
20260902231917 87 356 0.0 3.0 0.00 0.00 0.00 51 1011.0
20260902231648 88 70 0.0 3.0 0.00 0.00 0.00 51 1011.0
20260902230919 88 338 0.0 3.0 0.00 0.00 0.00 50 1011.1
20260902230415 88 113 0.0 3.0 0.00 0.00 0.00 51 1011.1
20260902225915 88 89 0.0 3.0 0.00 0.00 0.00 51 1011.1
20260902225414 88 12 0.0 3.0 0.00 0.00 0.00 50 1011.1
20260902224915 88 350 0.0 3.0 0.00 0.00 0.00 52 1011.1
20260902224415 89 350 0.0 3.0 0.00 0.00 0.00 49 1011.1
20260902223914 89 23 0.0 3.0 0.00 0.00 0.00 49 1011.1
20260902223415 89 100 0.0 3.0 0.00 0.00 0.00 50 1011.1
20260902223149 89 103 0.0 3.0 0.00 0.00 0.00 49 1011.1
20260902222415 89 141 0.0 3.0 0.00 0.00 0.00 50 1011.1
20260902221910 89 76 0.0 2.0 0.00 0.00 0.00 51 1011.2
20260902221409 89 76 0.0 3.0 0.00 0.00 0.00 50 1011.2
20260902221144 89 315 0.0 4.0 0.00 0.00 0.00 49 1011.2
20260902220411 89 77 0.0 4.0 0.00 0.00 0.00 50 1011.2
20260902215910 89 322 0.0 3.0 0.00 0.00 0.00 50 1011.2
20260902215409 89 82 0.0 3.0 0.00 0.00 0.00 52 1011.3
20260902214910 89 83 0.0 3.0 0.00 0.00 0.00 52 1011.3
20260902214409 88 119 0.0 3.0 0.00 0.00 0.00 53 1011.3
20260902213910 88 346 0.0 3.0 0.00 0.00 0.00 51 1011.3
20260902213409 89 354 0.0 3.0 0.00 0.00 0.00 50 1011.3
20260902213142 89 22 0.0 4.0 0.00 0.00 0.00 54 1011.3
20260902212642 88 91 0.0 4.0 0.00 0.00 0.00 55 1011.3
20260902212531 88 349 0.0 2.0 0.00 0.00 0.00 52 1011.3
20260902211410 88 349 0.0 2.0 0.00 0.00 0.00 53 1011.3
20260902210911 87 356 1.0 2.0 0.00 0.00 0.00 55 1011.4
20260902210409 87 356 1.0 3.0 0.00 0.00 0.00 54 1011.3
20260902210141 87 345 0.0 3.0 0.00 0.00 0.00 54 1011.3
20260902205409 88 333 0.0 3.0 0.00 0.00 0.00 54 1011.3
20260902205143 87 350 1.0 6.0 0.00 0.00 0.00 54 1011.4
20260902204411 87 76 1.0 6.0 0.00 0.00 0.00 54 1011.5
20260902203909 87 347 0.0 3.0 0.00 0.00 0.00 55 1011.5
20260902203409 88 328 0.0 3.0 0.00 0.00 0.00 56 1011.6
20260902202909 88 257 1.0 6.0 0.00 0.00 0.00 55 1011.6
20260902202411 88 152 1.0 6.0 0.00 0.00 0.00 53 1011.6
20260902201909 88 118 0.0 2.0 0.00 0.00 0.00 54 1011.5
20260902201411 88 93 0.0 2.0 0.00 0.00 0.00 52 1011.5
20260902200914 88 49 0.0 2.0 0.00 0.00 0.00 55 1011.6
20260902200411 87 126 0.0 4.0 0.00 0.00 0.00 55 1011.7
20260902195910 87 108 0.0 4.0 0.00 0.00 0.00 51 1011.7
20260902195640 87 257 0.0 2.0 0.00 0.00 0.00 51 1011.8
20260902194907 87 204 0.0 4.0 0.00 0.00 0.00 54 1011.9
20260902194638 87 333 1.0 4.0 0.00 0.00 0.00 54 1011.8
20260902194526 87 87 1.0 3.0 0.00 0.00 0.00 53 1011.9
20260902193406 86 214 1.0 3.0 0.00 0.00 0.00 53 1011.9
20260902192901 86 75 1.0 3.0 0.00 0.00 0.00 55 1011.9
20260902192633 86 218 1.0 4.0 0.00 0.00 0.00 53 1012.0
20260902191903 85 113 0.0 4.0 0.00 0.00 0.00 55 1012.1
20260902191401 85 15 0.0 2.0 0.00 0.00 0.00 57 1012.1
20260902190901 85 349 0.0 2.0 0.00 0.00 0.00 57 1012.3
20260902190403 85 82 0.0 3.0 0.00 0.00 0.00 54 1012.3
20260902185901 86 347 0.0 3.0 0.00 0.00 0.00 53 1012.3
20260902185357 86 117 1.0 4.0 0.00 0.00 0.00 54 1012.3
20260902184858 85 356 1.0 4.0 0.00 0.00 0.00 54 1012.2
20260902184350 85 88 1.0 5.0 0.00 0.00 0.00 55 1012.4
20260902183845 85 153 1.0 5.0 0.00 0.00 0.00 57 1012.4
20260902183344 85 215 1.0 3.0 0.00 0.00 0.00 57 1012.5
20260902183115 85 359 0.0 3.0 0.00 0.00 0.00 59 1012.6
20260902182341 84 324 0.0 3.0 0.00 0.00 0.00 57 1012.7
20260902181842 84 120 1.0 3.0 0.00 0.00 0.00 55 1012.8
20260902181341 85 335 1.0 6.0 0.00 0.00 0.00 56 1012.8
20260902181109 84 152 1.0 6.0 0.00 0.00 0.00 55 1012.8
20260902180610 84 240 1.0 5.0 0.00 0.00 0.00 58 1012.8
20260902180503 84 131 1.0 6.0 0.00 0.00 0.00 58 1012.8
20260902175337 85 89 1.0 6.0 0.00 0.00 0.00 57 1012.8
20260902174834 85 331 0.0 1.0 0.00 0.00 0.00 60 1012.7
20260902174334 84 56 0.0 1.0 0.00 0.00 0.00 60 1012.8
20260902174103 84 6 0.0 4.0 0.00 0.00 0.00 58 1012.9
20260902173604 84 12 0.0 4.0 0.00 0.00 0.00 60 1013.1
20260902172832 83 36 0.0 3.0 0.00 0.00 0.00 61 1013.2
20260902172332 83 204 0.0 3.0 0.00 0.00 0.00 60 1013.4
20260902172106 82 329 1.0 3.0 0.00 0.00 0.00 59 1013.4
20260902171328 83 104 0.0 3.0 0.00 0.00 0.00 58 1013.1
20260902170826 83 304 0.0 2.0 0.00 0.00 0.00 61 1013.1
20260902170818 82 335 0.0 3.0 0.00 0.00 0.00 62 1013.4
20260902165811 82 16 0.0 4.0 0.00 0.00 0.00 61 1013.4
20260902165309 82 335 1.0 4.0 0.00 0.00 0.00 63 1013.2
20260902164803 82 345 0.0 3.0 0.00 0.00 0.00 63 1013.1
20260902164537 81 108 0.0 5.0 0.00 0.00 0.00 65 1013.2
20260902163802 81 75 0.0 5.0 0.00 0.00 0.00 64 1013.2
20260902163259 81 95 0.0 4.0 0.00 0.00 0.00 65 1013.2
20260902162759 80 93 0.0 3.0 0.00 0.00 0.00 65 1013.4
20260902162257 80 109 0.0 3.0 0.00 0.00 0.00 68 1013.4
20260902162029 80 222 0.0 2.0 0.00 0.00 0.00 67 1013.6
20260902161258 79 58 0.0 1.0 0.00 0.00 0.00 68 1013.6
20260902160755 79 57 0.0 1.0 0.00 0.00 0.00 68 1013.4
20260902160254 79 108 0.0 1.0 0.00 0.00 0.00 69 1013.1
20260902155753 78 71 0.0 0.0 0.00 0.00 0.00 69 1013.1
20260902155252 78 60 0.0 1.0 0.00 0.00 0.00 70 1013.0
20260902154752 78 15 0.0 1.0 0.00 0.00 0.00 72 1013.0
20260902154250 77 17 0.0 1.0 0.00 0.00 0.00 71 1013.0
20260902153749 77 117 0.0 1.0 0.00 0.00 0.00 72 1013.0
20260902153250 77 142 0.0 0.0 0.00 0.00 0.00 73 1013.0
20260902152750 76 146 0.0 2.0 0.00 0.00 0.00 73 1013.0
20260902152516 76 203 0.0 3.0 0.00 0.00 0.00 72 1013.1
20260902151737 76 153 0.0 3.0 0.00 0.00 0.00 73 1013.1
20260902151503 76 239 0.0 3.0 0.00 0.00 0.00 76 1013.1
20260902150725 75 267 0.0 3.0 0.00 0.00 0.00 76 1013.1
20260902150219 75 228 0.0 1.0 0.00 0.00 0.00 75 1013.2
20260902145713 74 134 0.0 1.0 0.00 0.00 0.00 77 1013.4
20260902145208 74 233 0.0 1.0 0.00 0.00 0.00 77 1013.0
20260902144702 74 184 0.0 0.0 0.00 0.00 0.00 78 1012.7
20260902144156 73 136 0.0 1.0 0.00 0.00 0.00 80 1012.8
20260902143650 72 110 0.0 1.0 0.00 0.00 0.00 81 1012.9
20260902143415 71 156 0.0 1.0 0.00 0.00 0.00 83 1013.0
20260902142640 71 156 0.0 1.0 0.00 0.00 0.00 83 1013.2
20260902142132 70 120 0.0 1.0 0.00 0.00 0.00 84 1013.4
20260902141626 70 186 0.0 1.0 0.00 0.00 0.00 85 1013.4
20260902141120 70 352 0.0 1.0 0.00 0.00 0.00 85 1013.4
20260902140847 69 352 0.0 1.0 0.00 0.00 0.00 85 1013.5
20260902140108 69 352 0.0 1.0 0.00 0.00 0.00 85 1013.4
20260902135602 69 158 0.0 1.0 0.00 0.00 0.00 86 1013.5
20260902135056 69 145 0.0 1.0 0.00 0.00 0.00 86 1013.4
20260902134549 69 169 0.0 1.0 0.00 0.00 0.00 86 1013.4
20260902134044 69 169 0.0 2.0 0.00 0.00 0.00 86 1013.2
20260902133538 68 246 0.0 2.0 0.00 0.00 0.00 86 1013.2
20260902133032 68 242 0.0 2.0 0.00 0.00 0.00 86 1013.5
20260902132526 68 197 0.0 2.0 0.00 0.00 0.00 87 1013.4
20260902132251 68 169 0.0 2.0 0.00 0.00 0.00 87 1013.4
20260902131514 68 160 0.0 1.0 0.00 0.00 0.00 87 1013.4
20260902131009 68 120 0.0 1.0 0.00 0.00 0.00 88 1013.5
20260902131004 68 120 0.0 1.0 0.00 0.00 0.00 88 1013.5
20260902125956 67 120 0.0 1.0 0.00 0.00 0.00 89 1013.4
20260902125450 67 164 0.0 0.0 0.00 0.00 0.00 90 1013.5
20260902125215 67 163 0.0 0.0 0.00 0.00 0.00 90 1013.5
20260902124438 67 164 0.0 0.0 0.00 0.00 0.00 90 1013.5
20260902124202 67 164 0.0 0.0 0.00 0.00 0.00 90 1013.6
20260902123425 67 163 0.0 0.0 0.00 0.00 0.00 90 1013.8
20260902122920 67 163 0.0 0.0 0.00 0.00 0.00 90 1013.6
20260902122413 67 163 0.0 0.0 0.00 0.00 0.00 90 1013.4
20260902121908 67 164 0.0 0.0 0.00 0.00 0.00 90 1013.5
20260902121402 66 164 0.0 0.0 0.00 0.00 0.00 90 1013.4
20260902120856 67 163 0.0 0.0 0.00 0.00 0.00 90 1013.5
20260902120350 67 163 0.0 0.0 0.00 0.00 0.00 90 1013.5
20260902115844 66 163 0.0 0.0 0.00 0.00 0.00 90 1013.6
20260902115338 66 163 0.0 0.0 0.00 0.00 0.00 90 1013.9
20260902114832 66 163 0.0 0.0 0.00 0.00 0.00 90 1013.8
20260902114326 66 163 0.0 0.0 0.00 0.00 0.00 90 1014.0
20260902113820 66 164 0.0 0.0 0.00 0.00 0.00 90 1013.9
20260902113313 66 163 0.0 0.0 0.00 0.00 0.00 90 1013.7
20260902112808 66 164 0.0 0.0 0.00 0.00 0.00 90 1013.7
20260902112305 67 163 0.0 0.0 0.00 0.00 0.00 90 1013.6
20260902111756 67 163 0.0 0.0 0.00 0.00 0.00 90 1013.5
20260902111249 67 163 0.0 0.0 0.00 0.00 0.00 90 1013.7
20260902111015 67 163 0.0 0.0 0.00 0.00 0.00 90 1013.6
20260902110238 67 163 0.0 0.0 0.00 0.00 0.00 90 1013.5
20260902110006 66 163 0.0 0.0 0.00 0.00 0.00 90 1013.5
20260902105226 66 164 0.0 0.0 0.00 0.00 0.00 90 1013.6
20260902104719 66 163 0.0 0.0 0.00 0.00 0.00 90 1013.6
20260902104214 66 163 0.0 0.0 0.00 0.00 0.00 90 1013.6
20260902103708 66 164 0.0 1.0 0.00 0.00 0.00 91 1013.8
20260902103202 66 164 0.0 1.0 0.00 0.00 0.00 91 1013.7
20260902102655 66 163 0.0 0.0 0.00 0.00 0.00 91 1013.6
20260902102150 66 163 0.0 0.0 0.00 0.00 0.00 91 1013.7
20260902101644 66 163 0.0 1.0 0.00 0.00 0.00 90 1013.6
20260902101137 66 163 0.0 1.0 0.00 0.00 0.00 90 1013.5
20260902100632 67 312 0.0 0.0 0.00 0.00 0.00 90 1012.9
20260902100358 67 314 0.0 0.0 0.00 0.00 0.00 90 1012.8
20260902095622 67 314 0.0 0.0 0.00 0.00 0.00 90 1012.7
20260902095344 67 313 0.0 0.0 0.00 0.00 0.00 89 1012.6
20260902094607 67 314 0.0 0.0 0.00 0.00 0.00 89 1012.6
20260902094102 67 314 0.0 0.0 0.00 0.00 0.00 89 1012.3
20260902093556 68 314 0.0 0.0 0.00 0.00 0.00 88 1012.2
20260902092544 68 314 0.0 0.0 0.00 0.00 0.00 88 1011.9
20260902092037 68 314 0.0 1.0 0.00 0.00 0.00 88 1012.2
20260902091532 68 314 0.0 1.0 0.00 0.00 0.00 88 1012.2
20260902091026 67 314 0.0 1.0 0.00 0.00 0.00 89 1012.3
20260902090750 67 310 0.0 1.0 0.00 0.00 0.00 89 1012.4
20260902090014 67 310 0.0 1.0 0.00 0.00 0.00 89 1012.2
20260902085508 67 311 0.0 1.0 0.00 0.00 0.00 90 1012.3
20260902085234 67 239 0.0 0.0 0.00 0.00 0.00 90 1012.7
20260902084957 67 239 0.0 0.0 0.00 0.00 0.00 90 1012.9
20260902083950 67 239 0.0 0.0 0.00 0.00 0.00 90 1012.8
20260902083443 67 239 0.0 0.0 0.00 0.00 0.00 90 1012.8
20260902082937 67 239 0.0 0.0 0.00 0.00 0.00 90 1012.8
20260902082432 67 239 0.0 0.0 0.00 0.00 0.00 89 1012.8
20260902082156 67 239 0.0 0.0 0.00 0.00 0.00 89 1013.0
20260902081420 67 239 0.0 0.0 0.00 0.00 0.00 89 1013.2
20260902080914 67 239 0.0 0.0 0.00 0.00 0.00 89 1013.2
20260902080411 67 239 0.0 0.0 0.00 0.00 0.00 89 1013.1
20260902080405 67 239 0.0 0.0 0.00 0.00 0.00 89 1013.0